This is the latest recevied weather packets stored in our database for station/object OE5RPP. If no packets are shown the sender has not sent any weather packets the latest 10 day(s).
| Time | Temp. | Humidity | Pressure | Rain* | Wind** | Luminosity | Snow |
|---|---|---|---|---|---|---|---|
| 1777936825 | 12.22° C | 40% | 1013.9 hPa | 0 mm | - | - | - |
| 1777936224 | 12.22° C | 40% | 1013.9 hPa | 0 mm | - | - | - |
| 1777935624 | 12.22° C | 40% | 1013.9 hPa | 0 mm | - | - | - |
| 1777935024 | 12.22° C | 37% | 1013.9 hPa | 0 mm | - | - | - |
| 1777934425 | 12.22° C | 36% | 1013.9 hPa | 0 mm | - | - | - |
| 1777933824 | 13.33° C | 37% | 1013.9 hPa | 0 mm | - | - | - |
| 1777933224 | 13.33° C | 35% | 1013.9 hPa | 0 mm | - | - | - |
| 1777932624 | 13.33° C | 35% | 1013.9 hPa | 0 mm | - | - | - |
| 1777932025 | 13.33° C | 35% | 1013.9 hPa | 0 mm | - | - | - |
| 1777931424 | 13.33° C | 34% | 1013.9 hPa | 0 mm | - | - | - |
| 1777930824 | 13.33° C | 34% | 1013.9 hPa | 0 mm | - | - | - |
| 1777930225 | 13.89° C | 34% | 1013.9 hPa | 0 mm | - | - | - |
| 1777929625 | 13.89° C | 32% | 1013.9 hPa | 0 mm | - | - | - |
| 1777929025 | 14.44° C | 32% | 1013.9 hPa | 0 mm | - | - | - |
| 1777928424 | 14.44° C | 30% | 1013.9 hPa | 0 mm | - | - | - |
| 1777927824 | 14.44° C | 30% | 1013.9 hPa | 0 mm | - | - | - |
| 1777927223 | 15° C | 26% | 1013.9 hPa | 0 mm | - | - | - |
| 1777926625 | 15° C | 22% | 1013.9 hPa | 0 mm | - | - | - |
| 1777926024 | 16.11° C | 22% | 1013.9 hPa | 0 mm | - | - | - |
| 1777925424 | 16.67° C | 22% | 1013.9 hPa | 0 mm | - | - | - |
| 1777924825 | 17.22° C | 21% | 1013.9 hPa | 0 mm | - | - | - |
| 1777924225 | 17.22° C | 21% | 1013.9 hPa | 0 mm | - | - | - |
| 1777923624 | 17.78° C | 21% | 1013.9 hPa | 0 mm | - | - | - |
| 1777923025 | 17.78° C | 21% | 1013.9 hPa | 0 mm | - | - | - |
| 1777922424 | 18.89° C | 21% | 1013.9 hPa | 0 mm | - | - | - |
* Rain latest hour (hover to see other rain measurements)
** Current wind speed in m/s (hover to see current wind gust speed)